| time (UTC) | temp C | wind direction | speed KPH | gust KPH | rain 1hr cm | rain 24hr cm | rain mn cm | humidity % | barometer mb |
| 20260510033017 | 23 | 98 | 11.3 | 17.7 | 0.00 | 0.00 | 0.00 | 89 | 1011.6 |
| 20260510031522 | 23 | 104 | 0.0 | 11.3 | 0.00 | 0.00 | 0.00 | 89 | 1010.9 |
| 20260510030017 | 24 | 205 | 6.4 | 11.3 | 0.00 | 0.00 | 0.00 | 85 | 1010.2 |
| 20260510024517 | 25 | 122 | 0.0 | 3.2 | 0.00 | 0.00 | 0.00 | 81 | 1010.3 |
| 20260510023013 | 25 | 130 | 6.4 | 16.1 | 0.00 | 0.00 | 0.00 | 81 | 1010.0 |
| 20260510021525 | 24 | 113 | 12.9 | 24.1 | 0.00 | 0.00 | 0.00 | 83 | 1010.0 |
| 20260510020012 | 23 | 115 | 19.3 | 29.0 | 0.00 | 0.00 | 0.00 | 82 | 1009.9 |
| 20260510014511 | 24 | 107 | 16.1 | 27.4 | 0.00 | 0.00 | 0.00 | 82 | 1009.7 |
| 20260510013019 | 24 | 111 | 17.7 | 25.7 | 0.00 | 0.00 | 0.00 | 79 | 1009.5 |
| 20260510011509 | 26 | 86 | 12.9 | 24.1 | 0.00 | 0.00 | 0.00 | 76 | 1009.3 |
| 20260510010008 | 27 | 86 | 0.0 | 4.8 | 0.00 | 0.00 | 0.00 | 85 | 1008.9 |
| 20260510004509 | 28 | 120 | 0.0 | 0.0 | 0.00 | 0.00 | 0.00 | 81 | 1008.9 |
| 20260510003008 | 27 | 120 | 0.0 | 6.4 | 0.00 | 0.00 | 0.00 | 82 | 1008.8 |
| 20260510001509 | 28 | 163 | 0.0 | 6.4 | 0.00 | 0.00 | 0.00 | 79 | 1008.6 |
| 20260510000006 | 28 | 15 | 0.0 | 4.8 | 0.00 | 0.00 | 0.00 | 81 | 1008.7 |
| 20260509234506 | 29 | 46 | 1.6 | 9.7 | 0.00 | 0.00 | 0.00 | 79 | 1008.5 |
| 20260509233005 | 29 | 151 | 3.2 | 8.0 | 0.00 | 0.00 | 0.00 | 75 | 1008.4 |
| 20260509231505 | 30 | 148 | 0.0 | 4.8 | 0.00 | 0.00 | 0.00 | 73 | 1008.6 |
| 20260509230008 | 30 | 148 | 3.2 | 6.4 | 0.00 | 0.00 | 0.00 | 69 | 1008.5 |
| 20260509224507 | 30 | 110 | 3.2 | 11.3 | 0.00 | 0.00 | 0.00 | 69 | 1008.8 |
| 20260509223003 | 31 | 104 | 1.6 | 11.3 | 0.00 | 0.00 | 0.00 | 68 | 1008.5 |
| 20260509221601 | 31 | 137 | 1.6 | 16.1 | 0.00 | 0.00 | 0.00 | 68 | 1008.1 |
| 20260509214628 | 30 | 175 | 0.0 | 0.0 | 0.00 | 0.00 | 0.00 | 70 | 1008.2 |
| 20260509213054 | 30 | 243 | 1.6 | 4.8 | 0.00 | 0.00 | 0.00 | 69 | 1008.2 |
| 20260509211551 | 31 | 324 | 0.0 | 3.2 | 0.00 | 0.00 | 0.00 | 68 | 1008.3 |
| 20260509210052 | 31 | 104 | 3.2 | 8.0 | 0.00 | 0.00 | 0.00 | 66 | 1008.5 |
| 20260509204547 | 31 | 57 | 3.2 | 8.0 | 0.00 | 0.00 | 0.00 | 70 | 1008.7 |
| 20260509203054 | 30 | 81 | 1.6 | 4.8 | 0.00 | 0.00 | 0.00 | 70 | 1008.8 |
| 20260509201540 | 30 | 236 | 3.2 | 8.0 | 0.00 | 0.00 | 0.00 | 73 | 1009.1 |
| 20260509200040 | 30 | 77 | 1.6 | 8.0 | 0.00 | 0.00 | 0.00 | 72 | 1009.3 |
| 20260509194537 | 30 | 5 | 0.0 | 8.0 | 0.00 | 0.00 | 0.00 | 72 | 1009.5 |
| 20260509193033 | 30 | 51 | 3.2 | 9.7 | 0.00 | 0.00 | 0.00 | 75 | 1009.7 |
| 20260509191547 | 29 | 350 | 3.2 | 6.4 | 0.00 | 0.00 | 0.00 | 74 | 1009.6 |
| 20260509190032 | 28 | 360 | 0.0 | 9.7 | 0.00 | 0.00 | 0.00 | 75 | 1009.6 |
| 20260509184535 | 28 | 302 | 3.2 | 8.0 | 0.00 | 0.00 | 0.00 | 79 | 1009.9 |
| 20260509183030 | 27 | 246 | 6.4 | 11.3 | 0.00 | 0.00 | 0.00 | 80 | 1010.0 |
| 20260509181522 | 27 | 295 | 3.2 | 9.7 | 0.00 | 0.00 | 0.00 | 79 | 1010.3 |
| 20260509180021 | 27 | 226 | 4.8 | 9.7 | 0.00 | 0.03 | 0.00 | 78 | 1010.7 |
| 20260509174524 | 27 | 319 | 3.2 | 8.0 | 0.00 | 0.03 | 0.00 | 80 | 1010.8 |
| 20260509173019 | 27 | 216 | 3.2 | 11.3 | 0.00 | 0.03 | 0.00 | 82 | 1011.2 |
| 20260509171517 | 26 | 169 | 3.2 | 8.0 | 0.00 | 0.03 | 0.00 | 82 | 1011.4 |
| 20260509170022 | 26 | 262 | 3.2 | 11.3 | 0.00 | 0.05 | 0.00 | 84 | 1011.7 |
| 20260509164515 | 26 | 186 | 3.2 | 9.7 | 0.00 | 0.05 | 0.00 | 87 | 1011.5 |
| 20260509163012 | 25 | 297 | 0.0 | 6.4 | 0.00 | 0.05 | 0.00 | 89 | 1011.2 |
| 20260509161507 | 25 | 37 | 3.2 | 6.4 | 0.00 | 0.05 | 0.00 | 94 | 1011.2 |
| 20260509160004 | 24 | 101 | 3.2 | 6.4 | 0.00 | 0.05 | 0.00 | 98 | 1011.4 |
| 20260509154502 | 23 | 103 | 6.4 | 11.3 | 0.00 | 0.05 | 0.00 | 100 | 1011.3 |
| 20260509153117 | 23 | 114 | 1.6 | 9.7 | 0.00 | 0.05 | 0.00 | 100 | 1011.4 |
| 20260509151559 | 23 | 138 | 4.8 | 9.7 | 0.00 | 0.05 | 0.00 | 100 | 1011.1 |
| 20260509150058 | 23 | 107 | 3.2 | 6.4 | 0.00 | 0.05 | 0.00 | 100 | 1011.1 |
| 20260509144559 | 23 | 142 | 3.2 | 4.8 | 0.00 | 0.05 | 0.00 | 100 | 1011.0 |
| 20260509143056 | 23 | 326 | 1.6 | 8.0 | 0.00 | 0.05 | 0.00 | 100 | 1010.5 |
| 20260509141556 | 23 | 50 | 3.2 | 6.4 | 0.00 | 0.05 | 0.00 | 100 | 1009.8 |
| 20260509140100 | 23 | 74 | 1.6 | 4.8 | 0.00 | 0.05 | 0.00 | 100 | 1009.9 |
| 20260509134554 | 23 | 73 | 1.6 | 3.2 | 0.00 | 0.05 | 0.00 | 100 | 1010.5 |
| 20260509133053 | 22 | 73 | 1.6 | 4.8 | 0.00 | 0.05 | 0.00 | 100 | 1010.6 |
| 20260509131552 | 23 | 74 | 1.6 | 4.8 | 0.00 | 0.05 | 0.00 | 100 | 1011.1 |
| 20260509130104 | 22 | 150 | 3.2 | 8.0 | 0.00 | 0.05 | 0.00 | 100 | 1011.2 |
| 20260509124555 | 22 | 95 | 0.0 | 3.2 | 0.00 | 0.05 | 0.00 | 100 | 1011.3 |
| 20260509123052 | 22 | 95 | 1.6 | 3.2 | 0.00 | 0.05 | 0.00 | 100 | 1011.9 |
| 20260509121550 | 22 | 95 | 1.6 | 11.3 | 0.00 | 0.05 | 0.00 | 100 | 1011.1 |
| 20260509120147 | 22 | 72 | 3.2 | 6.4 | 0.00 | 0.05 | 0.00 | 100 | 1011.2 |
| 20260509114553 | 22 | 186 | 0.0 | 3.2 | 0.00 | 0.05 | 0.00 | 100 | 1011.3 |
| 20260509113053 | 22 | 186 | 4.8 | 6.4 | 0.00 | 0.05 | 0.00 | 100 | 1010.5 |
| 20260509111543 | 22 | 87 | 0.0 | 1.6 | 0.00 | 0.05 | 0.00 | 100 | 1010.8 |
| 20260509110042 | 22 | 87 | 1.6 | 4.8 | 0.00 | 0.05 | 0.00 | 100 | 1010.9 |
| 20260509104543 | 22 | 360 | 0.0 | 1.6 | 0.00 | 0.05 | 0.00 | 100 | 1010.9 |
| 20260509103048 | 22 | 360 | 0.0 | 4.8 | 0.00 | 0.05 | 0.00 | 100 | 1010.5 |
| 20260509101557 | 22 | 52 | 0.0 | 3.2 | 0.00 | 0.05 | 0.00 | 100 | 1010.4 |
| 20260509100041 | 22 | 52 | 0.0 | 3.2 | 0.00 | 0.05 | 0.00 | 100 | 1010.5 |
| 20260509094545 | 22 | 52 | 0.0 | 3.2 | 0.00 | 0.05 | 0.00 | 100 | 1010.2 |
| 20260509093039 | 22 | 52 | 0.0 | 3.2 | 0.00 | 0.05 | 0.00 | 100 | 1010.0 |
| 20260509091540 | 22 | 52 | 1.6 | 6.4 | 0.00 | 0.05 | 0.00 | 100 | 1009.8 |
| 20260509090045 | 22 | 152 | 1.6 | 3.2 | 0.00 | 0.05 | 0.00 | 100 | 1009.8 |
| 20260509084542 | 22 | 152 | 1.6 | 4.8 | 0.00 | 0.05 | 0.00 | 100 | 1010.0 |
| 20260509083050 | 22 | 152 | 0.0 | 3.2 | 0.00 | 0.05 | 0.00 | 100 | 1010.5 |
| 20260509081536 | 22 | 152 | 0.0 | 3.2 | 0.00 | 0.05 | 0.00 | 100 | 1010.4 |
| 20260509080039 | 22 | 152 | 0.0 | 4.8 | 0.00 | 0.05 | 0.00 | 100 | 1010.1 |
| 20260509074538 | 22 | 152 | 3.2 | 11.3 | 0.00 | 0.05 | 0.00 | 100 | 1010.0 |
| 20260509073035 | 22 | 148 | 6.4 | 14.5 | 0.00 | 0.05 | 0.00 | 100 | 1009.9 |
| 20260509071541 | 22 | 148 | 9.7 | 16.1 | 0.00 | 0.05 | 0.00 | 100 | 1010.0 |
| 20260509070031 | 22 | 136 | 9.7 | 14.5 | 0.00 | 0.05 | 0.00 | 99 | 1010.5 |
| 20260509064528 | 22 | 136 | 8.0 | 11.3 | 0.00 | 0.05 | 0.00 | 99 | 1010.5 |
| 20260509063024 | 22 | 124 | 4.8 | 11.3 | 0.00 | 0.05 | 0.00 | 99 | 1010.7 |
| 20260509061523 | 22 | 126 | 4.8 | 11.3 | 0.00 | 0.05 | 0.00 | 99 | 1010.9 |
| 20260509060019 | 22 | 125 | 4.8 | 9.7 | 0.00 | 0.05 | 0.00 | 99 | 1010.9 |
| 20260509054519 | 22 | 124 | 3.2 | 6.4 | 0.00 | 0.05 | 0.00 | 99 | 1011.0 |
| 20260509053018 | 22 | 134 | 3.2 | 8.0 | 0.00 | 0.05 | 0.00 | 99 | 1011.0 |
| 20260509051516 | 22 | 125 | 6.4 | 12.9 | 0.00 | 0.05 | 0.00 | 99 | 1010.9 |
| 20260509050020 | 22 | 128 | 8.0 | 14.5 | 0.00 | 0.05 | 0.05 | 98 | 1011.1 |
| 20260509044518 | 22 | 132 | 8.0 | 16.1 | 0.00 | 0.05 | 0.05 | 98 | 1010.8 |
| 20260509043015 | 22 | 122 | 12.9 | 17.7 | 0.00 | 0.05 | 0.05 | 98 | 1010.7 |
| 20260509041513 | 22 | 131 | 8.0 | 14.5 | 0.00 | 0.05 | 0.05 | 98 | 1010.7 |
| 20260509040025 | 22 | 119 | 6.4 | 9.7 | 0.00 | 0.05 | 0.05 | 98 | 1010.7 |
| 20260509034512 | 22 | 95 | 4.8 | 11.3 | 0.00 | 0.05 | 0.05 | 97 | 1010.8 |